Regional Weather Roundup
Issued by NWS

Home | Current Version | Previous Version | Text Only | Print | Product List | Glossary On
Versions: 1 2 3 4 5 6 7 8 9 10 11 12 13 14 15 16 17 18 19 20 21 22 23 24 25 26 27 28 29 30 31 32 33 34 35 36 37 38 39 40 41 42 43 44 45 46 47 48 49 50
000
ASUS44 KOUN 271300
RWROK

WEATHER ROUNDUP FOR OKLAHOMA
NATIONAL WEATHER SERVICE NORMAN OK
800 AM CDT MON APR 27 2015

NOTE: "FAIR" INDICATES FEW OR NO CLOUDS BELOW 12,000 FEET WITH NO
      SIGNIFICANT WEATHER AND/OR OBSTRUCTIONS TO VISIBILITY.

OKZ001>007-009>012-014-015-017-271400-
NORTHWEST OKLAHOMA AND THE PANHANDLE

CITY           SKY/WX    TMP DP  RH WIND       PRES   REMARKS
GAGE           HVY RAIN  46  45  96 NE18G29   29.90R FOG
GUYMON         LGT RAIN  45  43  93 NE22G31   29.94R
$$

OKZ016-021>023-033>039-044-045-271400-
SOUTHWEST OKLAHOMA

CITY           SKY/WX    TMP DP  RH WIND       PRES   REMARKS
LAWTON/REGL    CLOUDY    58  55  90 E21G30    29.71R
LAWTON/FT SILL CLOUDY    56  56 100 E14G29    29.70S
FREDERICK      CLOUDY    57  55  93 NE15G25   29.68R
CLINTON        CLOUDY    51  49  92 NE18      29.80R
HOBART         CLOUDY    52  51  97 NE20G29   29.76R
ALTUS AFB      CLOUDY    53  53 100 NE18      29.72R
$$

OKZ018>020-024>031-271400-
CENTRAL OKLAHOMA

CITY           SKY/WX    TMP DP  RH WIND       PRES   REMARKS
OKLAHOMA CITY  CLOUDY    55  51  86 E20G28    29.81F
OKC/WILEY POST CLOUDY    54  52  93 E24G37    29.82F
OKC/TINKER AFB CLOUDY    53  51  93 E15G23    29.81R
STILLWATER     CLOUDY    52  49  89 E13       29.92R
GUTHRIE        RAIN      53  51  93 NE13      29.87R FOG
$$

OKZ008-013-054>072-271400-
NORTHEAST OKLAHOMA

CITY           SKY/WX    TMP DP  RH WIND       PRES   REMARKS
TULSA          CLOUDY    54  50  86 E10       29.93R
TULSA/JONES    CLOUDY    54  50  86 NE13      29.93R
PONCA CITY     LGT RAIN  50  45  83 E14G23    29.96R
BARTLESVILLE   CLOUDY    51  44  77 NE12G18   29.99R
MUSKOGEE       LGT RAIN  54  47  77 E16       29.95R
$$

OKZ032-040>043-046>053-073>077-271400-
SOUTH CENTRAL/SOUTHEAST OKLAHOMA

CITY           SKY/WX    TMP DP  RH WIND       PRES   REMARKS
MCALESTER      CLOUDY    55  50  83 E13G21    29.87R
$$



USA.gov is the U.S. government's official web portal to all federal, state and local government web resources and services.